Sunday, December 17, 2017, 10:03 PM EST
Back to Local

KUCP, New Castle, New Castle Municipal Airport

Location: Edinburg, PA, United States Lat: 41.025
Local Time: 10:03 PM EST ( 3:03 GMT) Lon: -80.413
Time Zone: US/Eastern Elev: 1072 ft

Show me the last for .
Show Decoded

2017-12-17 20:56 METAR KUCP 180156Z AUTO 00000KT 10SM FEW048 OVC055 02/02 A3011 RMK AO2 SLP223
                 T00220017 =
2017-12-17 19:56 METAR KUCP 180056Z AUTO 19005KT 10SM BKN065 OVC090 02/01 A3009 RMK AO2 RAE2357
                 SLP217 T00220011 =
2017-12-17 18:56 METAR KUCP 172356Z AUTO 00000KT 10SM -RA OVC075 02/01 A3009 RMK AO2 SLP217 P0000
                 60000 T00220011 10039 20017 58013 =
2017-12-17 17:56 METAR KUCP 172256Z AUTO VRB05KT 10SM -RA SCT070 OVC090 03/00 A3010 RMK AO2 RAB06
                 SLP222 P0000 T00280000 =
2017-12-17 16:56 METAR KUCP 172156Z AUTO 18003KT 10SM SCT090 OVC100 03/M01 A3012 RMK AO2 SLP229
                 T00331011 =
2017-12-17 15:56 METAR KUCP 172056Z AUTO 00000KT 10SM BKN110 03/M02 A3013 RMK AO2 SLP230
                 T00331017 55006 =
2017-12-17 14:56 METAR KUCP 171956Z AUTO 15003KT 10SM SCT110 04/M02 A3011 RMK AO2 SLP223
                 T00391017 =
2017-12-17 13:56 METAR KUCP 171856Z AUTO 17004KT 10SM CLR 04/M02 A3011 RMK AO2 SLP225 T00391017 =
2017-12-17 12:56 METAR KUCP 171756Z AUTO 00000KT 10SM CLR 02/M02 A3015 RMK AO2 SLP238 T00171017
                 10022 21067 58021 =
2017-12-17 11:56 METAR KUCP 171656Z AUTO 00000KT 7SM CLR 01/M01 A3017 RMK AO2 SLP246 T00061011 =
2017-12-17 10:56 METAR KUCP 171556Z AUTO 00000KT 5SM BR CLR M02/M02 A3021 RMK AO2 SLP258
                 T10171022 =
2017-12-17 09:56 METAR KUCP 171456Z AUTO 00000KT 5SM BR CLR M03/M04 A3021 RMK AO2 SLP261
                 T10331039 53006 =
2017-12-17 08:56 METAR KUCP 171356Z AUTO 00000KT 4SM BR CLR M05/M06 A3020 RMK AO2 SLP257
                 T10501056 =
2017-12-17 07:56 METAR KUCP 171256Z AUTO 00000KT 4SM BR CLR M06/M07 A3019 RMK AO2 SLP254
                 T10611067 =
2017-12-17 06:56 METAR KUCP 171156Z AUTO 00000KT 4SM BR CLR M07/M08 A3019 RMK AO2 SLP254 70003
                 T10671078 11056 21072 51009 =
2017-12-17 05:56 METAR KUCP 171056Z AUTO 00000KT 4SM BR CLR M07/M08 A3018 RMK AO2 SLP252
                 T10671078 =
2017-12-17 04:56 METAR KUCP 170956Z AUTO 00000KT 5SM BR CLR M07/M08 A3017 RMK AO2 SLP244
                 T10671078 =
2017-12-17 03:56 METAR KUCP 170856Z AUTO 00000KT 5SM BR CLR M06/M07 A3016 RMK AO2 SLP242
                 T10611072 51004 =
2017-12-17 02:56 METAR KUCP 170756Z AUTO 00000KT 5SM BR CLR M06/M06 A3016 RMK AO2 SLP242
                 T10561061 =
2017-12-17 01:56 METAR KUCP 170656Z AUTO 00000KT 4SM BR CLR M07/M08 A3016 RMK AO2 SLP241
                 T10671078 =
2017-12-17 00:56 METAR KUCP 170556Z AUTO 00000KT 3SM BR CLR M06/M07 A3015 RMK AO2 SLP238
                 T10611072 10000 21061 51007 =
2017-12-16 23:56 METAR KUCP 170456Z AUTO 00000KT 5SM BR CLR M05/M06 A3014 RMK AO2 SLP235
                 T10501061 400441056 =
2017-12-16 22:56 METAR KUCP 170356Z AUTO 00000KT 8SM CLR M04/M06 A3014 RMK AO2 SLP233 T10441056 =

Support USWX by starting your Amazon purchase here.